Location: Kumla
(59.1265°N, 15.1401°E)
Time: 06:55:22
(UTC+01:00)

Transit 4A - Pass Details

Date: 03 December 2023
Orbit: 870 x 973 km, 66.8° (Epoch: 02 March)

Event Time Altitude Azimuth Distance (km) Brightness Sun altitude
Exits shadow 05:25:52 40° 252° (WSW) 1,341 8.3 -21.7°
Maximum altitude 05:26:23 41° 240° (WSW) 1,322 8.3 -21.7°
Drops below altitude 10° 05:31:55 10° 172° (S) 2,581 10.4 -21.0°
Sets 05:34:31 0° 165° (SSE) 3,503 11.2 -20.6°
